Time,TemperatureF,DewpointF,PressureIn,WindDirection,WindDirectionDegrees,WindSpeedMPH,WindSpeedGustMPH,Humidity,HourlyPrecipIn,Conditions,Clouds,dailyrainin,SoftwareType,DateUTC
2013-01-28 00:09:00,36.8,36.0,30.10,SE,139,3.0,6.0,95,0.02,,,0.33,weatherlink.com 1.10,2013-01-28 05:09:00,
2013-01-28 00:24:00,37.3,36.0,30.11,NW,311,1.0,7.0,95,0.03,,,0.01,weatherlink.com 1.10,2013-01-28 05:24:00,
2013-01-28 00:40:00,37.8,37.0,30.11,SE,137,1.0,6.0,95,0.03,,,0.02,weatherlink.com 1.10,2013-01-28 05:40:00,
2013-01-28 00:54:00,38.2,37.0,30.11,SSE,150,2.0,5.0,95,0.02,,,0.02,weatherlink.com 1.10,2013-01-28 05:54:00,
2013-01-28 01:10:00,38.5,37.0,30.11,SE,146,2.0,7.0,95,0.02,,,0.02,weatherlink.com 1.10,2013-01-28 06:10:00,
2013-01-28 01:25:00,38.5,37.0,30.11,NNE,20,2.0,8.0,95,0.02,,,0.03,weatherlink.com 1.10,2013-01-28 06:25:00,
2013-01-28 01:40:00,38.5,38.0,30.09,South,188,1.0,6.0,96,0.01,,,0.03,weatherlink.com 1.10,2013-01-28 06:40:00,
2013-01-28 01:55:00,38.6,38.0,30.08,SSE,155,1.0,5.0,96,0.01,,,0.03,weatherlink.com 1.10,2013-01-28 06:55:00,
2013-01-28 02:10:00,39.0,38.0,30.07,South,187,5.0,8.0,96,0.01,,,0.03,weatherlink.com 1.10,2013-01-28 07:10:00,
2013-01-28 02:25:00,40.2,39.0,30.06,SE,141,2.0,6.0,97,0.00,,,0.03,weatherlink.com 1.10,2013-01-28 07:25:00,
2013-01-28 02:40:00,41.2,40.0,30.05,SE,127,4.0,11.0,97,0.00,,,0.03,weatherlink.com 1.10,2013-01-28 07:40:00,
2013-01-28 02:55:00,42.2,41.0,30.05,SSW,210,2.0,13.0,97,0.00,,,0.03,weatherlink.com 1.10,2013-01-28 07:55:00,
2013-01-28 03:10:00,42.5,42.0,30.05,ENE,72,4.0,12.0,96,0.00,,,0.03,weatherlink.com 1.10,2013-01-28 08:10:00,
2013-01-28 03:25:00,42.6,41.0,30.05,SE,129,3.0,11.0,95,0.00,,,0.03,weatherlink.com 1.10,2013-01-28 08:25:00,
2013-01-28 03:40:00,43.1,42.0,30.05,South,191,7.0,12.0,96,0.00,,,0.03,weatherlink.com 1.10,2013-01-28 08:40:00,
2013-01-28 03:55:00,43.4,42.0,30.04,East,91,2.0,13.0,95,0.00,,,0.03,weatherlink.com 1.10,2013-01-28 08:55:00,
2013-01-28 04:10:00,43.3,42.0,30.04,South,184,4.0,10.0,95,0.00,,,0.03,weatherlink.com 1.10,2013-01-28 09:10:00,
2013-01-28 04:25:00,43.5,42.0,30.03,WSW,243,10.0,11.0,95,0.00,,,0.03,weatherlink.com 1.10,2013-01-28 09:25:00,
2013-01-28 04:40:00,43.7,42.0,30.03,SSW,210,2.0,10.0,95,0.00,,,0.03,weatherlink.com 1.10,2013-01-28 09:40:00,
2013-01-28 04:55:00,44.0,43.0,30.02,SSE,152,7.0,11.0,95,0.00,,,0.03,weatherlink.com 1.10,2013-01-28 09:55:00,
2013-01-28 05:10:00,44.1,43.0,30.02,SSE,160,2.0,9.0,95,0.00,,,0.03,weatherlink.com 1.10,2013-01-28 10:10:00,
2013-01-28 05:25:00,44.2,43.0,30.01,ESE,114,5.0,9.0,95,0.00,,,0.03,weatherlink.com 1.10,2013-01-28 10:25:00,
2013-01-28 05:40:00,44.4,43.0,30.00,SE,127,3.0,13.0,95,0.00,,,0.03,weatherlink.com 1.10,2013-01-28 10:40:00,
2013-01-28 05:55:00,44.5,43.0,29.99,SSE,149,1.0,10.0,95,0.00,,,0.03,weatherlink.com 1.10,2013-01-28 10:55:00,
2013-01-28 06:10:00,44.6,43.0,30.00,South,174,5.0,11.0,95,0.00,,,0.03,weatherlink.com 1.10,2013-01-28 11:10:00,
2013-01-28 06:25:00,44.8,44.0,30.01,SSE,152,4.0,8.0,95,0.02,,,0.05,weatherlink.com 1.10,2013-01-28 11:25:00,
2013-01-28 06:40:00,44.9,44.0,30.00,SSW,194,3.0,10.0,95,0.08,,,0.11,weatherlink.com 1.10,2013-01-28 11:40:00,
2013-01-28 06:55:00,44.9,44.0,30.00,South,169,4.0,8.0,95,0.10,,,0.13,weatherlink.com 1.10,2013-01-28 11:55:00,
2013-01-28 07:10:00,44.8,44.0,30.01,SE,136,2.0,8.0,95,0.10,,,0.13,weatherlink.com 1.10,2013-01-28 12:10:00,
2013-01-28 07:25:00,44.8,44.0,30.00,South,174,4.0,10.0,96,0.08,,,0.14,weatherlink.com 1.10,2013-01-28 12:25:00,
2013-01-28 07:40:00,44.8,44.0,30.00,East,99,2.0,7.0,96,0.02,,,0.14,weatherlink.com 1.10,2013-01-28 12:40:00,
2013-01-28 07:55:00,44.9,44.0,30.00,WSW,245,5.0,10.0,96,0.01,,,0.14,weatherlink.com 1.10,2013-01-28 12:55:00,
2013-01-28 08:10:00,45.1,44.0,30.00,ESE,104,4.0,11.0,96,0.01,,,0.14,weatherlink.com 1.10,2013-01-28 13:10:00,
2013-01-28 08:25:00,45.4,44.0,30.00,NNE,20,6.0,10.0,96,0.00,,,0.14,weatherlink.com 1.10,2013-01-28 13:25:00,
2013-01-28 08:40:00,45.5,45.0,30.00,South,173,1.0,14.0,96,0.00,,,0.14,weatherlink.com 1.10,2013-01-28 13:40:00,
2013-01-28 08:55:00,45.5,44.0,30.00,East,90,4.0,13.0,95,0.00,,,0.14,weatherlink.com 1.10,2013-01-28 13:55:00,
2013-01-28 09:10:00,45.6,44.0,30.00,South,173,5.0,11.0,95,0.00,,,0.14,weatherlink.com 1.10,2013-01-28 14:10:00,
2013-01-28 09:25:00,45.6,44.0,30.00,SE,143,5.0,9.0,95,0.00,,,0.14,weatherlink.com 1.10,2013-01-28 14:25:00,
2013-01-28 09:40:00,45.7,44.0,30.00,ESE,103,3.0,8.0,95,0.00,,,0.14,weatherlink.com 1.10,2013-01-28 14:40:00,
2013-01-28 09:55:00,45.8,45.0,30.00,NE,43,5.0,11.0,95,0.00,,,0.14,weatherlink.com 1.10,2013-01-28 14:55:00,
2013-01-28 10:11:00,46.3,45.0,30.00,South,187,6.0,9.0,95,0.00,,,0.14,weatherlink.com 1.10,2013-01-28 15:11:00,
2013-01-28 10:26:00,46.9,46.0,30.00,SE,143,3.0,12.0,95,0.00,,,0.14,weatherlink.com 1.10,2013-01-28 15:26:00,
2013-01-28 10:41:00,47.1,46.0,30.01,South,191,5.0,9.0,94,0.00,,,0.14,weatherlink.com 1.10,2013-01-28 15:41:00,
2013-01-28 10:56:00,47.0,45.0,30.01,WSW,246,3.0,8.0,94,0.00,,,0.14,weatherlink.com 1.10,2013-01-28 15:56:00,
2013-01-28 11:11:00,47.0,45.0,30.01,South,169,6.0,9.0,94,0.00,,,0.14,weatherlink.com 1.10,2013-01-28 16:11:00,
2013-01-28 11:26:00,47.5,46.0,30.02,SW,225,4.0,8.0,94,0.00,,,0.14,weatherlink.com 1.10,2013-01-28 16:26:00,
2013-01-28 11:41:00,48.3,47.0,30.02,ESE,103,5.0,9.0,94,0.00,,,0.14,weatherlink.com 1.10,2013-01-28 16:41:00,
2013-01-28 11:56:00,48.4,47.0,30.01,West,266,1.0,10.0,93,0.00,,,0.14,weatherlink.com 1.10,2013-01-28 16:56:00,
2013-01-28 12:11:00,48.3,46.0,30.01,SE,127,3.0,12.0,93,0.00,,,0.14,weatherlink.com 1.10,2013-01-28 17:11:00,
2013-01-28 12:26:00,48.1,46.0,30.01,SE,143,3.0,11.0,93,0.00,,,0.14,weatherlink.com 1.10,2013-01-28 17:26:00,
2013-01-28 12:41:00,47.9,46.0,30.00,SE,139,2.0,10.0,94,0.00,,,0.14,weatherlink.com 1.10,2013-01-28 17:41:00,
2013-01-28 12:56:00,47.9,47.0,30.00,ESE,118,5.0,10.0,95,0.00,,,0.14,weatherlink.com 1.10,2013-01-28 17:56:00,
2013-01-28 13:11:00,48.4,47.0,29.99,SSE,156,3.0,12.0,95,0.00,,,0.14,weatherlink.com 1.10,2013-01-28 18:11:00,
2013-01-28 13:26:00,48.9,48.0,29.99,South,191,3.0,9.0,95,0.00,,,0.14,weatherlink.com 1.10,2013-01-28 18:26:00,
2013-01-28 13:41:00,49.3,48.0,29.98,East,82,2.0,8.0,95,0.00,,,0.14,weatherlink.com 1.10,2013-01-28 18:41:00,
2013-01-28 13:56:00,49.5,48.0,29.97,East,93,5.0,10.0,95,0.00,,,0.14,weatherlink.com 1.10,2013-01-28 18:56:00,
2013-01-28 14:11:00,49.7,48.0,29.96,NE,52,4.0,8.0,95,0.00,,,0.14,weatherlink.com 1.10,2013-01-28 19:11:00,
2013-01-28 14:26:00,50.2,49.0,29.96,West,266,1.0,6.0,95,0.00,,,0.14,weatherlink.com 1.10,2013-01-28 19:26:00,
2013-01-28 14:41:00,50.5,49.0,29.96,East,85,1.0,6.0,95,0.00,,,0.14,weatherlink.com 1.10,2013-01-28 19:41:00,
2013-01-28 14:56:00,50.6,49.0,29.96,ESE,121,2.0,7.0,95,0.00,,,0.14,weatherlink.com 1.10,2013-01-28 19:56:00,
2013-01-28 15:11:00,50.7,49.0,29.96,ESE,121,2.0,8.0,95,0.00,,,0.14,weatherlink.com 1.10,2013-01-28 20:11:00,
2013-01-28 15:26:00,50.7,49.0,29.97,SSE,160,1.0,10.0,95,0.00,,,0.14,weatherlink.com 1.10,2013-01-28 20:26:00,
2013-01-28 15:41:00,50.5,49.0,29.97,SW,224,2.0,7.0,96,0.00,,,0.14,weatherlink.com 1.10,2013-01-28 20:41:00,
2013-01-28 15:56:00,50.3,49.0,29.98,SE,146,3.0,5.0,96,0.00,,,0.14,weatherlink.com 1.10,2013-01-28 20:56:00,
2013-01-28 16:11:00,50.1,49.0,29.98,SSE,156,0.0,6.0,96,0.00,,,0.14,weatherlink.com 1.10,2013-01-28 21:11:00,
2013-01-28 16:26:00,49.9,49.0,29.98,SSE,151,1.0,6.0,96,0.00,,,0.14,weatherlink.com 1.10,2013-01-28 21:26:00,
2013-01-28 16:41:00,49.7,49.0,29.98,ESE,111,0.0,6.0,96,0.00,,,0.14,weatherlink.com 1.10,2013-01-28 21:41:00,
2013-01-28 16:56:00,49.6,49.0,29.98,SSE,160,3.0,5.0,97,0.00,,,0.14,weatherlink.com 1.10,2013-01-28 21:56:00,
2013-01-28 17:11:00,49.5,49.0,29.98,SE,141,3.0,6.0,97,0.00,,,0.14,weatherlink.com 1.10,2013-01-28 22:11:00,
2013-01-28 17:26:00,49.5,49.0,29.98,South,172,0.0,8.0,97,0.00,,,0.14,weatherlink.com 1.10,2013-01-28 22:26:00,
2013-01-28 17:41:00,49.5,49.0,29.99,SE,131,0.0,6.0,97,0.00,,,0.14,weatherlink.com 1.10,2013-01-28 22:41:00,
2013-01-28 17:56:00,49.5,49.0,29.99,SSE,167,3.0,6.0,97,0.00,,,0.14,weatherlink.com 1.10,2013-01-28 22:56:00,
2013-01-28 18:11:00,49.5,49.0,30.00,SSE,148,1.0,6.0,97,0.00,,,0.14,weatherlink.com 1.10,2013-01-28 23:11:00,
2013-01-28 18:26:00,49.5,49.0,30.00,SE,136,1.0,6.0,97,0.00,,,0.14,weatherlink.com 1.10,2013-01-28 23:26:00,
2013-01-28 18:41:00,49.7,49.0,30.00,East,101,1.0,6.0,97,0.00,,,0.14,weatherlink.com 1.10,2013-01-28 23:41:00,
2013-01-28 18:56:00,49.8,49.0,30.00,SSE,148,0.0,8.0,97,0.00,,,0.14,weatherlink.com 1.10,2013-01-28 23:56:00,
2013-01-28 19:11:00,49.8,49.0,30.00,SSE,160,1.0,5.0,98,0.00,,,0.14,weatherlink.com 1.10,2013-01-29 00:11:00,
2013-01-28 19:26:00,49.9,49.0,30.00,SE,139,2.0,7.0,98,0.00,,,0.14,weatherlink.com 1.10,2013-01-29 00:26:00,
2013-01-28 19:41:00,49.9,49.0,30.00,SSE,163,1.0,5.0,98,0.00,,,0.14,weatherlink.com 1.10,2013-01-29 00:41:00,
2013-01-28 19:56:00,49.7,49.0,30.00,SE,132,1.0,5.0,98,0.00,,,0.14,weatherlink.com 1.10,2013-01-29 00:56:00,
2013-01-28 20:11:00,49.5,49.0,30.00,SSE,155,0.0,3.0,98,0.00,,,0.14,weatherlink.com 1.10,2013-01-29 01:11:00,
2013-01-28 20:26:00,49.3,49.0,30.00,ENE,77,1.0,5.0,98,0.00,,,0.14,weatherlink.com 1.10,2013-01-29 01:26:00,
2013-01-28 20:41:00,49.2,49.0,30.00,East,91,0.0,5.0,98,0.00,,,0.14,weatherlink.com 1.10,2013-01-29 01:41:00,
2013-01-28 20:56:00,49.2,49.0,30.00,South,179,2.0,4.0,98,0.00,,,0.14,weatherlink.com 1.10,2013-01-29 01:56:00,
2013-01-28 21:11:00,49.2,49.0,29.99,SE,141,0.0,5.0,98,0.00,,,0.14,weatherlink.com 1.10,2013-01-29 02:11:00,
2013-01-28 21:26:00,49.3,49.0,29.99,ESE,108,0.0,5.0,98,0.00,,,0.14,weatherlink.com 1.10,2013-01-29 02:26:00,
2013-01-28 21:41:00,49.3,49.0,29.99,South,173,1.0,4.0,98,0.00,,,0.14,weatherlink.com 1.10,2013-01-29 02:41:00,
2013-01-28 21:56:00,49.5,49.0,29.99,SE,131,3.0,6.0,98,0.01,,,0.15,weatherlink.com 1.10,2013-01-29 02:56:00,
2013-01-28 22:11:00,49.7,49.0,30.00,SSE,148,1.0,6.0,98,0.01,,,0.15,weatherlink.com 1.10,2013-01-29 03:11:00,
2013-01-28 22:26:00,49.6,49.0,29.99,East,94,0.0,4.0,98,0.01,,,0.15,weatherlink.com 1.10,2013-01-29 03:26:00,
2013-01-28 22:41:00,49.7,49.0,29.99,SSE,165,2.0,6.0,98,0.01,,,0.15,weatherlink.com 1.10,2013-01-29 03:41:00,
2013-01-28 22:56:00,49.9,49.0,29.99,SSE,160,0.0,5.0,98,0.00,,,0.15,weatherlink.com 1.10,2013-01-29 03:56:00,
2013-01-28 23:11:00,50.1,50.0,29.98,SE,136,2.0,6.0,98,0.00,,,0.15,weatherlink.com 1.10,2013-01-29 04:11:00,
2013-01-28 23:26:00,50.3,50.0,29.98,ESE,111,4.0,6.0,98,0.00,,,0.15,weatherlink.com 1.10,2013-01-29 04:26:00,
2013-01-28 23:41:00,50.4,50.0,29.98,SSE,155,2.0,4.0,98,0.00,,,0.15,weatherlink.com 1.10,2013-01-29 04:41:00,
2013-01-28 23:57:00,50.4,50.0,29.98,ENE,68,0.0,6.0,98,0.00,,,0.15,weatherlink.com 1.10,2013-01-29 04:57:00,